| time (UTC) | temp F | wind direction | speed MPH | gust MPH | rain 1hr in | rain 24hr in | rain mn in | humidity % | barometer mb |
| 20260510185435 | 76 | 174 | 1.0 | 3.0 | 0.00 | 0.00 | 0.00 | 82 | 1016.0 |
| 20260510184927 | 76 | 175 | 1.0 | 3.0 | 0.00 | 0.00 | 0.00 | 80 | 1015.9 |
| 20260510184549 | 76 | 248 | 0.0 | 2.0 | 0.00 | 0.00 | 0.00 | 81 | 1014.8 |
| 20260510184452 | 77 | 273 | 0.0 | 2.0 | 0.00 | 0.00 | 0.00 | 80 | 1015.9 |
| 20260510183934 | 77 | 212 | 0.0 | 2.0 | 0.00 | 0.00 | 0.00 | 81 | 1015.9 |
| 20260510183424 | 77 | 250 | 0.0 | 2.0 | 0.00 | 0.00 | 0.00 | 80 | 1015.9 |
| 20260510183014 | 77 | 193 | 0.0 | 2.0 | 0.00 | 0.00 | 0.00 | 79 | 1014.8 |
| 20260510182953 | 77 | 224 | 0.0 | 1.0 | 0.00 | 0.00 | 0.00 | 80 | 1016.0 |
| 20260510182423 | 77 | 352 | 0.0 | 1.0 | 0.00 | 0.00 | 0.00 | 81 | 1015.9 |
| 20260510181936 | 76 | 352 | 0.0 | 2.0 | 0.00 | 0.00 | 0.00 | 82 | 1015.9 |
| 20260510181602 | 76 | 352 | 0.0 | 2.0 | 0.00 | 0.00 | 0.00 | 82 | 1014.8 |
| 20260510181435 | 76 | 340 | 0.0 | 2.0 | 0.00 | 0.00 | 0.00 | 82 | 1015.9 |
| 20260510180926 | 76 | 44 | 0.0 | 1.0 | 0.00 | 0.00 | 0.00 | 82 | 1015.8 |
| 20260510180437 | 76 | 32 | 0.0 | 2.0 | 0.00 | 0.00 | 0.00 | 80 | 1015.8 |
| 20260510180049 | 76 | 13 | 0.0 | 2.0 | 0.00 | 0.00 | 0.00 | 82 | 1014.6 |
| 20260510175947 | 76 | 22 | 0.0 | 2.0 | 0.00 | 0.00 | 0.00 | 82 | 1015.8 |
| 20260510175427 | 76 | 347 | 0.0 | 1.0 | 0.00 | 0.00 | 0.00 | 82 | 1015.8 |
| 20260510174939 | 76 | 355 | 0.0 | 1.0 | 0.00 | 0.00 | 0.00 | 82 | 1015.8 |
| 20260510174557 | 75 | 347 | 0.0 | 1.0 | 0.00 | 0.00 | 0.00 | 83 | 1014.7 |
| 20260510174440 | 76 | 55 | 0.0 | 1.0 | 0.00 | 0.00 | 0.00 | 83 | 1015.8 |
| 20260510173933 | 75 | 292 | 0.0 | 1.0 | 0.00 | 0.00 | 0.00 | 83 | 1015.8 |
| 20260510173445 | 75 | 234 | 0.0 | 1.0 | 0.00 | 0.00 | 0.00 | 84 | 1015.8 |
| 20260510173114 | 74 | 243 | 0.0 | 1.0 | 0.00 | 0.00 | 0.00 | 83 | 1014.6 |
| 20260510172926 | 75 | 240 | 0.0 | 1.0 | 0.00 | 0.00 | 0.00 | 84 | 1015.8 |
| 20260510172434 | 75 | 238 | 0.0 | 1.0 | 0.00 | 0.00 | 0.00 | 83 | 1015.8 |
| 20260510171946 | 74 | 58 | 0.0 | 3.0 | 0.00 | 0.00 | 0.00 | 84 | 1015.6 |
| 20260510171508 | 74 | 58 | 0.0 | 3.0 | 0.00 | 0.00 | 0.00 | 83 | 1014.4 |
| 20260510171447 | 74 | 58 | 1.0 | 3.0 | 0.00 | 0.00 | 0.00 | 83 | 1015.6 |
| 20260510170937 | 75 | 51 | 0.0 | 3.0 | 0.00 | 0.00 | 0.00 | 84 | 1015.5 |
| 20260510170450 | 74 | 67 | 0.0 | 3.0 | 0.00 | 0.00 | 0.00 | 84 | 1015.3 |
| 20260510170104 | 74 | 49 | 0.0 | 3.0 | 0.00 | 0.00 | 0.00 | 84 | 1014.1 |
| 20260510165930 | 74 | 62 | 1.0 | 3.0 | 0.00 | 0.00 | 0.00 | 85 | 1015.2 |
| 20260510165421 | 74 | 356 | 0.0 | 2.0 | 0.00 | 0.00 | 0.00 | 86 | 1015.1 |
| 20260510164933 | 74 | 58 | 0.0 | 2.0 | 0.00 | 0.00 | 0.00 | 86 | 1015.0 |
| 20260510164547 | 73 | 59 | 0.0 | 2.0 | 0.00 | 0.00 | 0.00 | 85 | 1013.9 |
| 20260510164444 | 74 | 63 | 0.0 | 2.0 | 0.00 | 0.00 | 0.00 | 85 | 1015.0 |
| 20260510163926 | 74 | 65 | 0.0 | 1.0 | 0.00 | 0.00 | 0.00 | 85 | 1015.0 |
| 20260510163437 | 74 | 214 | 0.0 | 1.0 | 0.00 | 0.00 | 0.00 | 84 | 1014.9 |
| 20260510163055 | 73 | 215 | 0.0 | 1.0 | 0.00 | 0.00 | 0.00 | 85 | 1013.8 |
| 20260510162946 | 74 | 215 | 0.0 | 1.0 | 0.00 | 0.00 | 0.00 | 85 | 1014.8 |
| 20260510162458 | 74 | 210 | 0.0 | 1.0 | 0.00 | 0.00 | 0.00 | 84 | 1014.8 |
| 20260510161939 | 74 | 213 | 0.0 | 0.0 | 0.00 | 0.00 | 0.00 | 84 | 1014.9 |
| 20260510161521 | 74 | 213 | 0.0 | 1.0 | 0.00 | 0.00 | 0.00 | 83 | 1013.8 |
| 20260510161430 | 74 | 213 | 0.0 | 1.0 | 0.00 | 0.00 | 0.00 | 83 | 1014.9 |
| 20260510160925 | 74 | 213 | 0.0 | 1.0 | 0.00 | 0.00 | 0.00 | 82 | 1014.9 |
| 20260510160437 | 74 | 213 | 0.0 | 2.0 | 0.00 | 0.00 | 0.00 | 81 | 1014.9 |
| 20260510160028 | 74 | 234 | 0.0 | 2.0 | 0.00 | 0.00 | 0.00 | 82 | 1013.9 |
| 20260510155947 | 74 | 178 | 0.0 | 2.0 | 0.00 | 0.00 | 0.00 | 83 | 1014.9 |
| 20260510155458 | 74 | 205 | 0.0 | 5.0 | 0.00 | 0.00 | 0.00 | 82 | 1014.9 |
| 20260510154948 | 74 | 206 | 0.0 | 5.0 | 0.00 | 0.00 | 0.00 | 82 | 1014.8 |
| 20260510154610 | 74 | 255 | 0.0 | 5.0 | 0.00 | 0.00 | 0.00 | 82 | 1013.7 |
| 20260510154428 | 74 | 216 | 1.0 | 5.0 | 0.00 | 0.00 | 0.00 | 82 | 1014.7 |
| 20260510153940 | 75 | 250 | 1.0 | 6.0 | 0.00 | 0.00 | 0.00 | 82 | 1014.8 |
| 20260510153423 | 75 | 184 | 2.0 | 7.0 | 0.00 | 0.00 | 0.00 | 81 | 1014.7 |
| 20260510153003 | 74 | 237 | 2.0 | 7.0 | 0.00 | 0.00 | 0.00 | 80 | 1013.6 |
| 20260510152933 | 75 | 226 | 3.0 | 7.0 | 0.00 | 0.00 | 0.00 | 80 | 1014.7 |
| 20260510152445 | 75 | 227 | 2.0 | 5.0 | 0.00 | 0.00 | 0.00 | 83 | 1014.6 |
| 20260510151935 | 74 | 186 | 0.0 | 6.0 | 0.00 | 0.00 | 0.00 | 84 | 1014.6 |
| 20260510151556 | 73 | 211 | 0.0 | 6.0 | 0.00 | 0.00 | 0.00 | 82 | 1013.7 |
| 20260510151436 | 74 | 220 | 1.0 | 6.0 | 0.00 | 0.00 | 0.00 | 83 | 1014.7 |
| 20260510150926 | 74 | 210 | 1.0 | 4.0 | 0.00 | 0.00 | 0.00 | 85 | 1014.8 |
| 20260510150435 | 73 | 205 | 1.0 | 4.0 | 0.00 | 0.00 | 0.00 | 87 | 1014.7 |
| 20260510150058 | 71 | 354 | 0.0 | 2.0 | 0.00 | 0.00 | 0.00 | 87 | 1013.6 |
| 20260510145935 | 72 | 263 | 0.0 | 2.0 | 0.00 | 0.00 | 0.00 | 88 | 1014.8 |
| 20260510145443 | 71 | 53 | 1.0 | 3.0 | 0.00 | 0.00 | 0.00 | 88 | 1014.8 |
| 20260510144934 | 71 | 55 | 1.0 | 3.0 | 0.00 | 0.00 | 0.00 | 89 | 1014.8 |
| 20260510144545 | 70 | 55 | 1.0 | 3.0 | 0.00 | 0.00 | 0.00 | 89 | 1013.8 |
| 20260510144444 | 70 | 345 | 1.0 | 3.0 | 0.00 | 0.00 | 0.00 | 90 | 1014.8 |
| 20260510143925 | 70 | 53 | 0.0 | 3.0 | 0.00 | 0.00 | 0.00 | 92 | 1014.9 |
| 20260510143457 | 69 | 65 | 1.0 | 3.0 | 0.00 | 0.00 | 0.00 | 93 | 1014.9 |
| 20260510143036 | 68 | 57 | 0.0 | 3.0 | 0.00 | 0.00 | 0.00 | 95 | 1013.9 |
| 20260510142945 | 68 | 57 | 0.0 | 3.0 | 0.00 | 0.00 | 0.00 | 95 | 1015.0 |
| 20260510142457 | 67 | 51 | 0.0 | 3.0 | 0.00 | 0.00 | 0.00 | 95 | 1015.0 |
| 20260510141938 | 67 | 54 | 2.0 | 4.0 | 0.00 | 0.00 | 0.00 | 96 | 1015.1 |
| 20260510141520 | 66 | 57 | 1.0 | 4.0 | 0.00 | 0.00 | 0.00 | 96 | 1014.0 |
| 20260510141428 | 67 | 59 | 2.0 | 4.0 | 0.00 | 0.00 | 0.00 | 96 | 1015.0 |
| 20260510141000 | 66 | 49 | 1.0 | 4.0 | 0.00 | 0.00 | 0.00 | 96 | 1015.1 |
| 20260510140450 | 66 | 59 | 2.0 | 3.0 | 0.00 | 0.00 | 0.00 | 96 | 1015.1 |
| 20260510140048 | 65 | 58 | 1.0 | 3.0 | 0.00 | 0.00 | 0.00 | 96 | 1014.1 |
| 20260510135930 | 66 | 54 | 1.0 | 3.0 | 0.00 | 0.00 | 0.00 | 96 | 1015.1 |
| 20260510135421 | 66 | 53 | 1.0 | 3.0 | 0.00 | 0.00 | 0.00 | 96 | 1015.1 |
| 20260510134933 | 66 | 62 | 1.0 | 2.0 | 0.00 | 0.00 | 0.00 | 96 | 1015.1 |
| 20260510134606 | 65 | 56 | 0.0 | 4.0 | 0.00 | 0.00 | 0.00 | 96 | 1014.2 |
| 20260510134430 | 66 | 52 | 0.0 | 4.0 | 0.00 | 0.00 | 0.00 | 96 | 1015.1 |
| 20260510133922 | 66 | 52 | 1.0 | 4.0 | 0.00 | 0.00 | 0.00 | 96 | 1015.1 |
| 20260510133433 | 66 | 57 | 0.0 | 3.0 | 0.00 | 0.00 | 0.00 | 96 | 1015.2 |
| 20260510133045 | 65 | 54 | 1.0 | 2.0 | 0.00 | 0.00 | 0.00 | 96 | 1014.1 |
| 20260510132943 | 66 | 50 | 0.0 | 2.0 | 0.00 | 0.00 | 0.00 | 96 | 1015.1 |
| 20260510132425 | 66 | 54 | 0.0 | 2.0 | 0.00 | 0.00 | 0.00 | 96 | 1014.9 |
| 20260510131936 | 66 | 51 | 0.0 | 4.0 | 0.00 | 0.00 | 0.00 | 96 | 1015.0 |
| 20260510131554 | 65 | 84 | 1.0 | 4.0 | 0.00 | 0.00 | 0.00 | 96 | 1013.7 |
| 20260510131437 | 66 | 53 | 2.0 | 4.0 | 0.00 | 0.00 | 0.00 | 96 | 1014.7 |
| 20260510130929 | 66 | 252 | 0.0 | 2.0 | 0.00 | 0.00 | 0.00 | 97 | 1014.8 |
| 20260510130500 | 66 | 248 | 0.0 | 4.0 | 0.00 | 0.00 | 0.00 | 97 | 1014.7 |
| 20260510130039 | 65 | 242 | 1.0 | 4.0 | 0.00 | 0.00 | 0.00 | 97 | 1013.6 |
| 20260510125949 | 65 | 242 | 2.0 | 5.0 | 0.00 | 0.00 | 0.00 | 97 | 1014.6 |
| 20260510125432 | 65 | 243 | 2.0 | 6.0 | 0.00 | 0.00 | 0.00 | 97 | 1014.5 |
| 20260510124943 | 65 | 244 | 3.0 | 6.0 | 0.00 | 0.00 | 0.00 | 97 | 1014.3 |
| 20260510124528 | 64 | 248 | 3.0 | 4.0 | 0.00 | 0.00 | 0.00 | 97 | 1013.3 |
| 20260510124432 | 65 | 245 | 3.0 | 4.0 | 0.00 | 0.00 | 0.00 | 97 | 1014.3 |
| 20260510123932 | 65 | 235 | 3.0 | 5.0 | 0.00 | 0.00 | 0.00 | 97 | 1014.2 |
| 20260510123423 | 65 | 231 | 4.0 | 6.0 | 0.00 | 0.00 | 0.00 | 96 | 1014.1 |
| 20260510123030 | 64 | 238 | 3.0 | 6.0 | 0.00 | 0.00 | 0.00 | 96 | 1012.8 |
| 20260510122949 | 65 | 243 | 4.0 | 6.0 | 0.00 | 0.00 | 0.00 | 96 | 1013.8 |
| 20260510122439 | 65 | 202 | 4.0 | 6.0 | 0.00 | 0.00 | 0.00 | 96 | 1013.7 |
| 20260510121942 | 65 | 242 | 2.0 | 3.0 | 0.00 | 0.00 | 0.00 | 96 | 1013.6 |
| 20260510121517 | 64 | 235 | 2.0 | 3.0 | 0.00 | 0.00 | 0.00 | 96 | 1012.7 |
| 20260510121452 | 65 | 237 | 2.0 | 3.0 | 0.00 | 0.00 | 0.00 | 96 | 1013.7 |
| 20260510120941 | 65 | 229 | 2.0 | 3.0 | 0.00 | 0.00 | 0.00 | 96 | 1013.8 |
| 20260510120431 | 65 | 229 | 2.0 | 4.0 | 0.00 | 0.00 | 0.00 | 95 | 1013.9 |
| 20260510120045 | 64 | 244 | 2.0 | 4.0 | 0.00 | 0.00 | 0.00 | 95 | 1012.9 |
| 20260510115941 | 65 | 246 | 3.0 | 4.0 | 0.00 | 0.00 | 0.00 | 96 | 1014.0 |
| 20260510115423 | 65 | 241 | 2.0 | 3.0 | 0.00 | 0.00 | 0.00 | 96 | 1013.8 |
| 20260510114935 | 65 | 229 | 2.0 | 4.0 | 0.00 | 0.00 | 0.00 | 96 | 1013.5 |
| 20260510114553 | 65 | 236 | 2.0 | 4.0 | 0.00 | 0.00 | 0.00 | 95 | 1012.3 |
| 20260510114435 | 65 | 234 | 2.0 | 4.0 | 0.00 | 0.00 | 0.00 | 95 | 1013.2 |
| 20260510113926 | 65 | 229 | 0.0 | 0.0 | 0.00 | 0.00 | 0.00 | 95 | 1013.1 |
| 20260510113458 | 65 | 224 | 0.0 | 0.0 | 0.00 | 0.00 | 0.00 | 95 | 1013.2 |
| 20260510113019 | 65 | 207 | 0.0 | 0.0 | 0.00 | 0.00 | 0.00 | 94 | 1012.3 |
| 20260510112925 | 66 | 35 | 0.0 | 0.0 | 0.00 | 0.00 | 0.00 | 94 | 1013.4 |
| 20260510112438 | 66 | 35 | 0.0 | 0.0 | 0.00 | 0.00 | 0.00 | 95 | 1013.4 |
| 20260510111943 | 66 | 35 | 0.0 | 0.0 | 0.00 | 0.00 | 0.00 | 95 | 1013.5 |
| 20260510111502 | 66 | 35 | 0.0 | 0.0 | 0.00 | 0.00 | 0.00 | 94 | 1012.6 |
| 20260510111422 | 66 | 35 | 0.0 | 0.0 | 0.00 | 0.00 | 0.00 | 94 | 1013.5 |
| 20260510110934 | 66 | 35 | 0.0 | 0.0 | 0.00 | 0.00 | 0.00 | 94 | 1013.5 |
| 20260510110447 | 67 | 22 | 0.0 | 0.0 | 0.00 | 0.00 | 0.00 | 94 | 1013.5 |
| 20260510110026 | 66 | 240 | 0.0 | 0.0 | 0.00 | 0.00 | 0.00 | 95 | 1012.5 |
| 20260510105947 | 66 | 240 | 0.0 | 0.0 | 0.00 | 0.00 | 0.00 | 95 | 1013.5 |
| 20260510105437 | 66 | 240 | 0.0 | 0.0 | 0.00 | 0.00 | 0.00 | 95 | 1013.4 |
| 20260510104949 | 66 | 240 | 0.0 | 0.0 | 0.00 | 0.00 | 0.00 | 95 | 1013.4 |
| 20260510104605 | 65 | 240 | 0.0 | 0.0 | 0.00 | 0.00 | 0.00 | 95 | 1012.5 |
| 20260510104430 | 66 | 240 | 0.0 | 0.0 | 0.00 | 0.00 | 0.00 | 95 | 1013.6 |
| 20260510103922 | 66 | 240 | 0.0 | 0.0 | 0.00 | 0.00 | 0.00 | 95 | 1013.6 |
| 20260510103453 | 66 | 240 | 0.0 | 0.0 | 0.00 | 0.00 | 0.00 | 95 | 1013.7 |
| 20260510103048 | 65 | 240 | 0.0 | 1.0 | 0.00 | 0.00 | 0.00 | 95 | 1012.7 |
| 20260510102941 | 66 | 240 | 0.0 | 1.0 | 0.00 | 0.00 | 0.00 | 96 | 1013.7 |
| 20260510102422 | 66 | 240 | 0.0 | 1.0 | 0.00 | 0.00 | 0.00 | 96 | 1013.9 |
| 20260510101954 | 65 | 239 | 0.0 | 1.0 | 0.00 | 0.00 | 0.00 | 96 | 1014.0 |
| 20260510101514 | 65 | 252 | 0.0 | 1.0 | 0.00 | 0.00 | 0.00 | 95 | 1012.9 |
| 20260510101423 | 65 | 252 | 0.0 | 0.0 | 0.00 | 0.00 | 0.00 | 95 | 1013.9 |
| 20260510100922 | 65 | 252 | 0.0 | 0.0 | 0.00 | 0.00 | 0.00 | 95 | 1014.1 |
| 20260510100433 | 65 | 252 | 0.0 | 1.0 | 0.00 | 0.00 | 0.00 | 95 | 1014.1 |
| 20260510100022 | 65 | 252 | 0.0 | 1.0 | 0.00 | 0.00 | 0.00 | 95 | 1013.0 |
| 20260510095923 | 65 | 252 | 0.0 | 1.0 | 0.00 | 0.00 | 0.00 | 95 | 1014.0 |
| 20260510095426 | 65 | 252 | 0.0 | 1.0 | 0.00 | 0.00 | 0.00 | 95 | 1014.0 |
| 20260510094938 | 65 | 252 | 0.0 | 1.0 | 0.00 | 0.00 | 0.00 | 96 | 1013.8 |
| 20260510094530 | 65 | 252 | 0.0 | 1.0 | 0.00 | 0.00 | 0.00 | 96 | 1012.7 |
| 20260510094428 | 65 | 252 | 0.0 | 1.0 | 0.00 | 0.00 | 0.00 | 96 | 1013.7 |
| 20260510093931 | 65 | 252 | 1.0 | 1.0 | 0.00 | 0.00 | 0.00 | 96 | 1013.7 |
| 20260510093422 | 65 | 252 | 0.0 | 0.0 | 0.00 | 0.00 | 0.00 | 96 | 1013.6 |
| 20260510093057 | 64 | 252 | 0.0 | 0.0 | 0.00 | 0.00 | 0.00 | 95 | 1012.6 |
| 20260510092951 | 65 | 252 | 0.0 | 0.0 | 0.00 | 0.00 | 0.00 | 95 | 1013.5 |
| 20260510092441 | 65 | 242 | 0.0 | 0.0 | 0.00 | 0.00 | 0.00 | 95 | 1013.7 |
| 20260510091923 | 65 | 242 | 0.0 | 0.0 | 0.00 | 0.00 | 0.00 | 95 | 1013.8 |
| 20260510091528 | 64 | 242 | 0.0 | 0.0 | 0.00 | 0.00 | 0.00 | 95 | 1012.7 |
| 20260510091433 | 65 | 242 | 0.0 | 0.0 | 0.00 | 0.00 | 0.00 | 95 | 1013.6 |
| 20260510090945 | 65 | 242 | 0.0 | 0.0 | 0.00 | 0.00 | 0.00 | 95 | 1013.6 |
| 20260510090428 | 65 | 242 | 0.0 | 0.0 | 0.00 | 0.00 | 0.00 | 95 | 1013.5 |
| 20260510090046 | 64 | 242 | 0.0 | 0.0 | 0.00 | 0.00 | 0.00 | 95 | 1012.3 |
| 20260510085936 | 65 | 242 | 0.0 | 0.0 | 0.00 | 0.00 | 0.00 | 95 | 1013.3 |
| 20260510085448 | 65 | 242 | 0.0 | 0.0 | 0.00 | 0.00 | 0.00 | 95 | 1013.2 |
| 20260510084930 | 65 | 242 | 0.0 | 0.0 | 0.00 | 0.00 | 0.00 | 95 | 1013.2 |
| 20260510084523 | 64 | 242 | 0.0 | 0.0 | 0.00 | 0.00 | 0.00 | 95 | 1012.3 |
| 20260510084420 | 65 | 242 | 0.0 | 0.0 | 0.00 | 0.00 | 0.00 | 95 | 1013.2 |
| 20260510083947 | 65 | 242 | 0.0 | 0.0 | 0.00 | 0.00 | 0.00 | 95 | 1013.0 |
| 20260510083430 | 65 | 242 | 0.0 | 1.0 | 0.00 | 0.00 | 0.00 | 94 | 1012.9 |
| 20260510083037 | 64 | 242 | 0.0 | 1.0 | 0.00 | 0.00 | 0.00 | 94 | 1011.9 |
| 20260510082948 | 65 | 242 | 0.0 | 1.0 | 0.00 | 0.00 | 0.00 | 94 | 1012.8 |
| 20260510082430 | 65 | 245 | 1.0 | 2.0 | 0.00 | 0.00 | 0.00 | 94 | 1012.8 |
| 20260510081922 | 65 | 245 | 1.0 | 2.0 | 0.00 | 0.00 | 0.00 | 94 | 1012.7 |
| 20260510081600 | 65 | 243 | 0.0 | 3.0 | 0.00 | 0.00 | 0.00 | 94 | 1011.6 |
| 20260510081424 | 65 | 244 | 1.0 | 3.0 | 0.00 | 0.00 | 0.00 | 94 | 1012.6 |
| 20260510080936 | 65 | 236 | 2.0 | 3.0 | 0.00 | 0.00 | 0.00 | 94 | 1012.5 |
| 20260510080447 | 66 | 243 | 2.0 | 3.0 | 0.00 | 0.00 | 0.00 | 94 | 1012.6 |
| 20260510080037 | 65 | 238 | 2.0 | 4.0 | 0.00 | 0.00 | 0.00 | 94 | 1011.5 |
| 20260510075937 | 66 | 243 | 2.0 | 4.0 | 0.00 | 0.00 | 0.00 | 94 | 1012.4 |
| 20260510075439 | 65 | 245 | 2.0 | 3.0 | 0.00 | 0.00 | 0.00 | 93 | 1012.4 |
| 20260510074948 | 66 | 238 | 3.0 | 5.0 | 0.00 | 0.00 | 0.00 | 93 | 1012.5 |
| 20260510074519 | 65 | 237 | 2.0 | 5.0 | 0.00 | 0.00 | 0.00 | 93 | 1011.5 |
| 20260510074457 | 66 | 241 | 3.0 | 5.0 | 0.00 | 0.00 | 0.00 | 93 | 1012.6 |
| 20260510073928 | 66 | 240 | 3.0 | 4.0 | 0.00 | 0.00 | 0.00 | 93 | 1012.5 |
| 20260510073441 | 66 | 243 | 3.0 | 4.0 | 0.00 | 0.00 | 0.00 | 93 | 1012.4 |
| 20260510073004 | 65 | 236 | 2.0 | 4.0 | 0.00 | 0.00 | 0.00 | 93 | 1011.4 |
| 20260510072920 | 66 | 240 | 2.0 | 4.0 | 0.00 | 0.00 | 0.00 | 92 | 1012.4 |
| 20260510072432 | 66 | 238 | 3.0 | 4.0 | 0.00 | 0.00 | 0.00 | 92 | 1012.4 |
| 20260510071938 | 66 | 231 | 3.0 | 4.0 | 0.00 | 0.00 | 0.00 | 92 | 1012.3 |
| 20260510071555 | 65 | 243 | 2.0 | 4.0 | 0.00 | 0.00 | 0.00 | 91 | 1011.4 |
| 20260510071438 | 66 | 235 | 3.0 | 4.0 | 0.00 | 0.00 | 0.00 | 91 | 1012.5 |
| 20260510070930 | 66 | 244 | 3.0 | 4.0 | 0.00 | 0.00 | 0.00 | 92 | 1012.4 |
| 20260510070440 | 66 | 239 | 2.0 | 4.0 | 0.00 | 0.00 | 0.00 | 91 | 1012.4 |
| 20260510070100 | 66 | 241 | 2.0 | 4.0 | 0.00 | 0.00 | 0.00 | 91 | 1011.5 |
| 20260510065922 | 66 | 235 | 3.0 | 4.0 | 0.00 | 0.00 | 0.00 | 91 | 1012.6 |
| 20260510065453 | 66 | 244 | 3.0 | 5.0 | 0.00 | 0.00 | 0.00 | 91 | 1012.6 |
| 20260510064925 | 66 | 238 | 3.0 | 5.0 | 0.00 | 0.00 | 0.00 | 91 | 1012.7 |
| 20260510064601 | 66 | 242 | 3.0 | 4.0 | 0.00 | 0.00 | 0.00 | 90 | 1011.6 |
| 20260510064427 | 66 | 240 | 3.0 | 4.0 | 0.00 | 0.00 | 0.00 | 90 | 1012.5 |
| 20260510063938 | 67 | 243 | 3.0 | 4.0 | 0.00 | 0.00 | 0.00 | 90 | 1012.5 |
| 20260510063430 | 67 | 247 | 3.0 | 4.0 | 0.00 | 0.00 | 0.00 | 90 | 1012.7 |
| 20260510063057 | 66 | 243 | 2.0 | 4.0 | 0.00 | 0.00 | 0.00 | 90 | 1011.7 |
| 20260510062931 | 67 | 238 | 3.0 | 4.0 | 0.00 | 0.00 | 0.00 | 89 | 1012.6 |
| 20260510062423 | 67 | 255 | 3.0 | 4.0 | 0.00 | 0.00 | 0.00 | 90 | 1012.6 |
| 20260510061925 | 67 | 244 | 3.0 | 4.0 | 0.00 | 0.00 | 0.00 | 90 | 1012.6 |
| 20260510061501 | 66 | 239 | 2.0 | 3.0 | 0.00 | 0.00 | 0.00 | 89 | 1011.7 |
| 20260510061435 | 67 | 243 | 2.0 | 3.0 | 0.00 | 0.00 | 0.00 | 89 | 1012.7 |
| 20260510060926 | 67 | 238 | 2.0 | 3.0 | 0.00 | 0.00 | 0.00 | 88 | 1012.8 |
| 20260510060429 | 67 | 236 | 2.0 | 4.0 | 0.00 | 0.00 | 0.00 | 88 | 1012.9 |
| 20260510060009 | 67 | 234 | 1.0 | 4.0 | 0.00 | 0.00 | 0.00 | 88 | 1011.8 |
| 20260510055937 | 67 | 242 | 2.0 | 4.0 | 0.00 | 0.00 | 0.00 | 88 | 1012.8 |
| 20260510055429 | 67 | 240 | 2.0 | 3.0 | 0.00 | 0.00 | 0.00 | 88 | 1012.7 |
| 20260510054927 | 67 | 238 | 3.0 | 3.0 | 0.00 | 0.00 | 0.00 | 87 | 1012.6 |
| 20260510054520 | 67 | 240 | 2.0 | 3.0 | 0.00 | 0.00 | 0.00 | 87 | 1011.6 |
| 20260510054436 | 68 | 242 | 3.0 | 3.0 | 0.00 | 0.00 | 0.00 | 87 | 1012.6 |
| 20260510053948 | 68 | 238 | 3.0 | 3.0 | 0.00 | 0.00 | 0.00 | 87 | 1012.7 |
| 20260510053439 | 68 | 236 | 3.0 | 3.0 | 0.00 | 0.00 | 0.00 | 87 | 1012.6 |
| 20260510053047 | 67 | 240 | 2.0 | 3.0 | 0.00 | 0.00 | 0.00 | 86 | 1011.6 |
| 20260510052949 | 68 | 240 | 2.0 | 3.0 | 0.00 | 0.00 | 0.00 | 86 | 1012.6 |
| 20260510052432 | 68 | 233 | 2.0 | 4.0 | 0.00 | 0.00 | 0.00 | 86 | 1012.5 |
| 20260510051943 | 68 | 234 | 2.0 | 4.0 | 0.00 | 0.00 | 0.00 | 86 | 1012.4 |
| 20260510051535 | 67 | 232 | 2.0 | 4.0 | 0.00 | 0.00 | 0.00 | 86 | 1011.3 |
| 20260510051431 | 68 | 233 | 2.0 | 4.0 | 0.00 | 0.00 | 0.00 | 86 | 1012.2 |
| 20260510050934 | 68 | 229 | 3.0 | 4.0 | 0.00 | 0.00 | 0.00 | 85 | 1012.2 |
| 20260510050426 | 68 | 236 | 2.0 | 4.0 | 0.00 | 0.00 | 0.00 | 85 | 1012.1 |
| 20260510050041 | 68 | 238 | 2.0 | 3.0 | 0.00 | 0.00 | 0.00 | 85 | 1011.1 |
| 20260510045931 | 68 | 236 | 2.0 | 3.0 | 0.00 | 0.00 | 0.00 | 85 | 1012.1 |
| 20260510045433 | 68 | 239 | 3.0 | 3.0 | 0.00 | 0.00 | 0.00 | 84 | 1012.2 |
| 20260510044921 | 68 | 231 | 2.0 | 3.0 | 0.00 | 0.00 | 0.00 | 84 | 1012.1 |
| 20260510044555 | 68 | 236 | 2.0 | 4.0 | 0.00 | 0.00 | 0.00 | 83 | 1011.1 |
| 20260510044423 | 68 | 235 | 2.0 | 4.0 | 0.00 | 0.00 | 0.00 | 83 | 1012.0 |
| 20260510043934 | 68 | 236 | 2.0 | 4.0 | 0.00 | 0.00 | 0.00 | 83 | 1012.0 |
| 20260510043425 | 68 | 231 | 2.0 | 6.0 | 0.00 | 0.00 | 0.00 | 82 | 1012.1 |
| 20260510043049 | 68 | 242 | 2.0 | 6.0 | 0.00 | 0.00 | 0.00 | 82 | 1011.1 |
| 20260510042951 | 69 | 243 | 3.0 | 6.0 | 0.00 | 0.00 | 0.00 | 81 | 1012.1 |
| 20260510042433 | 69 | 240 | 3.0 | 6.0 | 0.00 | 0.00 | 0.00 | 80 | 1012.2 |
| 20260510041926 | 69 | 236 | 3.0 | 5.0 | 0.00 | 0.00 | 0.00 | 80 | 1012.1 |
| 20260510041537 | 69 | 234 | 2.0 | 6.0 | 0.00 | 0.00 | 0.00 | 79 | 1011.1 |
| 20260510041435 | 69 | 246 | 3.0 | 6.0 | 0.00 | 0.00 | 0.00 | 79 | 1012.1 |
| 20260510040947 | 70 | 219 | 3.0 | 7.0 | 0.00 | 0.00 | 0.00 | 78 | 1012.0 |
| 20260510040429 | 70 | 248 | 3.0 | 8.0 | 0.00 | 0.00 | 0.00 | 78 | 1012.0 |
| 20260510040023 | 69 | 238 | 4.0 | 9.0 | 0.00 | 0.00 | 0.00 | 77 | 1011.0 |
| 20260510035939 | 70 | 236 | 5.0 | 9.0 | 0.00 | 0.00 | 0.00 | 77 | 1012.0 |
| 20260510035428 | 70 | 255 | 4.0 | 9.0 | 0.00 | 0.00 | 0.00 | 76 | 1012.1 |
| 20260510034931 | 70 | 217 | 5.0 | 8.0 | 0.00 | 0.00 | 0.00 | 76 | 1012.0 |
| 20260510034511 | 69 | 226 | 3.0 | 8.0 | 0.00 | 0.00 | 0.00 | 74 | 1011.0 |
| 20260510034442 | 70 | 236 | 4.0 | 8.0 | 0.00 | 0.00 | 0.00 | 74 | 1011.9 |
| 20260510033932 | 70 | 210 | 4.0 | 8.0 | 0.00 | 0.00 | 0.00 | 74 | 1012.1 |
| 20260510033443 | 70 | 238 | 4.0 | 7.0 | 0.00 | 0.00 | 0.00 | 73 | 1012.0 |
| 20260510033102 | 70 | 209 | 3.0 | 8.0 | 0.00 | 0.00 | 0.00 | 72 | 1011.0 |
| 20260510032943 | 70 | 181 | 4.0 | 8.0 | 0.00 | 0.00 | 0.00 | 72 | 1011.9 |
| 20260510032430 | 70 | 179 | 4.0 | 8.0 | 0.00 | 0.00 | 0.00 | 71 | 1011.9 |
| 20260510032002 | 70 | 240 | 3.0 | 9.0 | 0.00 | 0.00 | 0.00 | 70 | 1011.9 |
| 20260510031528 | 70 | 240 | 3.0 | 9.0 | 0.00 | 0.00 | 0.00 | 69 | 1010.8 |
| 20260510031431 | 71 | 261 | 4.0 | 9.0 | 0.00 | 0.00 | 0.00 | 68 | 1011.8 |
| 20260510030933 | 71 | 191 | 3.0 | 5.0 | 0.00 | 0.00 | 0.00 | 66 | 1011.7 |
| 20260510030424 | 72 | 278 | 2.0 | 6.0 | 0.00 | 0.00 | 0.00 | 64 | 1011.6 |
| 20260510030039 | 72 | 205 | 3.0 | 7.0 | 0.00 | 0.00 | 0.00 | 64 | 1010.6 |
| 20260510025934 | 72 | 183 | 3.0 | 7.0 | 0.00 | 0.00 | 0.00 | 64 | 1011.6 |
| 20260510025435 | 72 | 254 | 2.0 | 8.0 | 0.00 | 0.00 | 0.00 | 64 | 1011.5 |
| 20260510024947 | 72 | 233 | 2.0 | 8.0 | 0.00 | 0.00 | 0.00 | 64 | 1011.4 |
| 20260510024522 | 72 | 216 | 2.0 | 6.0 | 0.00 | 0.00 | 0.00 | 64 | 1010.4 |
| 20260510024436 | 72 | 181 | 2.0 | 6.0 | 0.00 | 0.00 | 0.00 | 64 | 1011.4 |
| 20260510023947 | 72 | 215 | 2.0 | 5.0 | 0.00 | 0.00 | 0.00 | 64 | 1011.3 |
| 20260510023430 | 73 | 188 | 1.0 | 6.0 | 0.00 | 0.00 | 0.00 | 63 | 1011.3 |
| 20260510023030 | 72 | 185 | 2.0 | 6.0 | 0.00 | 0.00 | 0.00 | 63 | 1010.3 |
| 20260510023000 | 73 | 214 | 2.0 | 6.0 | 0.00 | 0.00 | 0.00 | 64 | 1011.2 |
| 20260510022430 | 73 | 192 | 2.0 | 7.0 | 0.00 | 0.00 | 0.00 | 63 | 1011.2 |
| 20260510021933 | 73 | 204 | 1.0 | 7.0 | 0.00 | 0.00 | 0.00 | 64 | 1011.1 |
| 20260510021519 | 72 | 160 | 0.0 | 5.0 | 0.00 | 0.00 | 0.00 | 65 | 1010.0 |
| 20260510021424 | 73 | 153 | 1.0 | 5.0 | 0.00 | 0.00 | 0.00 | 65 | 1011.0 |
| 20260510020926 | 73 | 177 | 2.0 | 5.0 | 0.00 | 0.00 | 0.00 | 64 | 1010.9 |
| 20260510020433 | 73 | 186 | 0.0 | 5.0 | 0.00 | 0.00 | 0.00 | 64 | 1010.9 |
| 20260510020028 | 73 | 152 | 1.0 | 5.0 | 0.00 | 0.00 | 0.00 | 64 | 1009.9 |
| 20260510015943 | 73 | 138 | 1.0 | 4.0 | 0.00 | 0.00 | 0.00 | 64 | 1010.9 |
| 20260510015433 | 73 | 226 | 0.0 | 6.0 | 0.00 | 0.00 | 0.00 | 64 | 1010.8 |
| 20260510014936 | 74 | 141 | 0.0 | 6.0 | 0.00 | 0.00 | 0.00 | 64 | 1010.8 |
| 20260510014511 | 73 | 148 | 0.0 | 5.0 | 0.00 | 0.00 | 0.00 | 63 | 1009.9 |
| 20260510014426 | 74 | 189 | 1.0 | 5.0 | 0.00 | 0.00 | 0.00 | 63 | 1010.9 |
| 20260510013958 | 74 | 143 | 1.0 | 4.0 | 0.00 | 0.00 | 0.00 | 63 | 1010.7 |
| 20260510013449 | 74 | 241 | 0.0 | 4.0 | 0.00 | 0.00 | 0.00 | 63 | 1010.7 |
| 20260510013104 | 73 | 169 | 0.0 | 5.0 | 0.00 | 0.00 | 0.00 | 63 | 1009.8 |
| 20260510012931 | 74 | 220 | 0.0 | 5.0 | 0.00 | 0.00 | 0.00 | 63 | 1010.7 |
| 20260510012421 | 74 | 225 | 1.0 | 6.0 | 0.00 | 0.00 | 0.00 | 64 | 1010.6 |
| 20260510011933 | 74 | 148 | 1.0 | 6.0 | 0.00 | 0.00 | 0.00 | 64 | 1010.6 |
| 20260510011556 | 74 | 78 | 1.0 | 6.0 | 0.00 | 0.00 | 0.00 | 64 | 1009.6 |
| 20260510011432 | 74 | 243 | 2.0 | 6.0 | 0.00 | 0.00 | 0.00 | 64 | 1010.5 |
| 20260510010923 | 74 | 284 | 0.0 | 6.0 | 0.00 | 0.00 | 0.00 | 64 | 1010.5 |
| 20260510010435 | 75 | 214 | 1.0 | 6.0 | 0.00 | 0.00 | 0.00 | 63 | 1010.4 |
| 20260510010136 | 74 | 220 | 1.0 | 6.0 | 0.00 | 0.00 | 0.00 | 64 | 1009.5 |
| 20260510005945 | 74 | 186 | 1.0 | 5.0 | 0.00 | 0.00 | 0.00 | 64 | 1010.4 |
| 20260510005427 | 75 | 176 | 1.0 | 4.0 | 0.00 | 0.00 | 0.00 | 64 | 1010.4 |
| 20260510004934 | 75 | 161 | 2.0 | 5.0 | 0.00 | 0.00 | 0.00 | 64 | 1010.3 |
| 20260510004546 | 74 | 235 | 0.0 | 5.0 | 0.00 | 0.00 | 0.00 | 64 | 1009.3 |
| 20260510004443 | 75 | 206 | 1.0 | 5.0 | 0.00 | 0.00 | 0.00 | 64 | 1010.3 |
| 20260510003926 | 75 | 191 | 1.0 | 5.0 | 0.00 | 0.00 | 0.00 | 64 | 1010.2 |
| 20260510003438 | 75 | 210 | 1.0 | 4.0 | 0.00 | 0.00 | 0.00 | 64 | 1010.1 |
| 20260510003057 | 75 | 255 | 0.0 | 4.0 | 0.00 | 0.00 | 0.00 | 65 | 1009.1 |
| 20260510002937 | 76 | 175 | 1.0 | 4.0 | 0.00 | 0.00 | 0.00 | 65 | 1010.1 |
| 20260510002429 | 76 | 251 | 0.0 | 3.0 | 0.00 | 0.00 | 0.00 | 65 | 1010.1 |
| 20260510001939 | 76 | 192 | 1.0 | 3.0 | 0.00 | 0.00 | 0.00 | 65 | 1010.0 |
| 20260510001540 | 76 | 207 | 0.0 | 5.0 | 0.00 | 0.00 | 0.00 | 65 | 1009.0 |
| 20260510001448 | 76 | 207 | 0.0 | 5.0 | 0.00 | 0.00 | 0.00 | 66 | 1009.9 |
| 20260510000931 | 77 | 155 | 1.0 | 5.0 | 0.00 | 0.00 | 0.00 | 64 | 1009.9 |
| 20260510000423 | 77 | 236 | 1.0 | 6.0 | 0.00 | 0.00 | 0.00 | 65 | 1009.9 |
| 20260510000048 | 77 | 247 | 1.0 | 6.0 | 0.00 | 0.00 | 0.00 | 63 | 1008.8 |
| 20260509235924 | 77 | 219 | 1.0 | 4.0 | 0.00 | 0.00 | 0.00 | 64 | 1009.8 |
| 20260509235455 | 78 | 260 | 1.0 | 4.0 | 0.00 | 0.00 | 0.00 | 63 | 1009.8 |
| 20260509234925 | 78 | 174 | 1.0 | 6.0 | 0.00 | 0.00 | 0.00 | 63 | 1009.7 |
| 20260509234536 | 78 | 224 | 2.0 | 6.0 | 0.00 | 0.00 | 0.00 | 62 | 1008.7 |
| 20260509234435 | 79 | 193 | 3.0 | 6.0 | 0.00 | 0.00 | 0.00 | 62 | 1009.6 |
| 20260509233937 | 79 | 182 | 1.0 | 3.0 | 0.00 | 0.00 | 0.00 | 61 | 1009.6 |
| 20260509233427 | 79 | 176 | 0.0 | 3.0 | 0.00 | 0.00 | 0.00 | 61 | 1009.5 |
| 20260509233025 | 79 | 161 | 0.0 | 3.0 | 0.00 | 0.00 | 0.00 | 61 | 1008.6 |
| 20260509232952 | 79 | 231 | 1.0 | 3.0 | 0.00 | 0.00 | 0.00 | 61 | 1009.5 |
| 20260509232442 | 79 | 219 | 0.0 | 4.0 | 0.00 | 0.00 | 0.00 | 61 | 1009.5 |
| 20260509231953 | 79 | 217 | 1.0 | 4.0 | 0.00 | 0.00 | 0.00 | 60 | 1009.6 |
| 20260509231532 | 79 | 155 | 0.0 | 2.0 | 0.00 | 0.00 | 0.00 | 62 | 1008.6 |
| 20260509231442 | 79 | 155 | 0.0 | 2.0 | 0.00 | 0.00 | 0.00 | 62 | 1009.6 |
| 20260509230953 | 79 | 13 | 0.0 | 3.0 | 0.00 | 0.00 | 0.00 | 63 | 1009.5 |
| 20260509230504 | 79 | 214 | 0.0 | 3.0 | 0.00 | 0.00 | 0.00 | 62 | 1009.4 |
| 20260509230100 | 79 | 221 | 0.0 | 2.0 | 0.00 | 0.00 | 0.00 | 63 | 1008.5 |
| 20260509225942 | 79 | 192 | 0.0 | 2.0 | 0.00 | 0.00 | 0.00 | 64 | 1009.4 |
| 20260509225440 | 79 | 214 | 0.0 | 4.0 | 0.00 | 0.00 | 0.00 | 62 | 1009.5 |
| 20260509224923 | 79 | 202 | 2.0 | 4.0 | 0.00 | 0.00 | 0.00 | 63 | 1009.4 |
| 20260509224529 | 79 | 231 | 1.0 | 4.0 | 0.00 | 0.00 | 0.00 | 62 | 1008.4 |
| 20260509224432 | 79 | 231 | 1.0 | 4.0 | 0.00 | 0.00 | 0.00 | 61 | 1009.4 |
| 20260509223931 | 79 | 256 | 1.0 | 3.0 | 0.00 | 0.00 | 0.00 | 61 | 1009.3 |
| 20260509223423 | 79 | 298 | 0.0 | 1.0 | 0.00 | 0.00 | 0.00 | 62 | 1009.4 |
| 20260509223036 | 78 | 298 | 0.0 | 5.0 | 0.00 | 0.00 | 0.00 | 62 | 1008.3 |
| 20260509222953 | 79 | 290 | 0.0 | 5.0 | 0.00 | 0.00 | 0.00 | 62 | 1009.3 |
| 20260509222444 | 79 | 44 | 0.0 | 5.0 | 0.00 | 0.00 | 0.00 | 60 | 1009.3 |
| 20260509221948 | 80 | 336 | 1.0 | 3.0 | 0.00 | 0.00 | 0.00 | 58 | 1009.3 |
| 20260509221609 | 81 | 253 | 0.0 | 3.0 | 0.00 | 0.00 | 0.00 | 57 | 1008.3 |
| 20260509221445 | 81 | 268 | 1.0 | 3.0 | 0.00 | 0.00 | 0.00 | 57 | 1009.1 |
| 20260509220948 | 83 | 125 | 1.0 | 2.0 | 0.00 | 0.00 | 0.00 | 56 | 1009.1 |
| 20260509220439 | 83 | 56 | 1.0 | 3.0 | 0.00 | 0.00 | 0.00 | 54 | 1009.0 |
| 20260509220032 | 82 | 60 | 0.0 | 3.0 | 0.00 | 0.00 | 0.00 | 56 | 1008.2 |
| 20260509215928 | 82 | 69 | 1.0 | 4.0 | 0.00 | 0.00 | 0.00 | 56 | 1009.1 |
| 20260509215432 | 83 | 47 | 0.0 | 4.0 | 0.00 | 0.00 | 0.00 | 55 | 1009.1 |
| 20260509214924 | 82 | 211 | 1.0 | 3.0 | 0.00 | 0.00 | 0.00 | 53 | 1009.1 |
| 20260509214543 | 82 | 280 | 0.0 | 4.0 | 0.00 | 0.00 | 0.00 | 54 | 1008.1 |
| 20260509214455 | 82 | 246 | 1.0 | 4.0 | 0.00 | 0.00 | 0.00 | 54 | 1009.0 |
| 20260509213946 | 83 | 22 | 1.0 | 4.0 | 0.00 | 0.00 | 0.00 | 52 | 1009.1 |
| 20260509213428 | 83 | 63 | 1.0 | 3.0 | 0.00 | 0.00 | 0.00 | 50 | 1009.1 |
| 20260509213030 | 83 | 333 | 0.0 | 2.0 | 0.00 | 0.00 | 0.00 | 49 | 1008.2 |
| 20260509212934 | 83 | 335 | 1.0 | 2.0 | 0.00 | 0.00 | 0.00 | 47 | 1009.1 |
| 20260509212437 | 83 | 131 | 1.0 | 2.0 | 0.00 | 0.00 | 0.00 | 51 | 1009.1 |
| 20260509211929 | 82 | 49 | 1.0 | 3.0 | 0.00 | 0.00 | 0.00 | 50 | 1009.2 |
| 20260509211543 | 82 | 48 | 0.0 | 3.0 | 0.00 | 0.00 | 0.00 | 48 | 1008.3 |
| 20260509211439 | 82 | 48 | 0.0 | 3.0 | 0.00 | 0.00 | 0.00 | 48 | 1009.2 |
| 20260509210921 | 83 | 42 | 1.0 | 2.0 | 0.00 | 0.00 | 0.00 | 47 | 1009.3 |
| 20260509210454 | 82 | 24 | 1.0 | 3.0 | 0.00 | 0.00 | 0.00 | 47 | 1009.4 |
| 20260509210023 | 82 | 50 | 0.0 | 4.0 | 0.00 | 0.00 | 0.00 | 48 | 1008.5 |
| 20260509205921 | 82 | 51 | 1.0 | 4.0 | 0.00 | 0.00 | 0.00 | 48 | 1009.5 |
| 20260509205424 | 83 | 1 | 1.0 | 4.0 | 0.00 | 0.00 | 0.00 | 47 | 1009.4 |
| 20260509204936 | 83 | 46 | 1.0 | 6.0 | 0.00 | 0.00 | 0.00 | 45 | 1009.5 |
| 20260509204532 | 83 | 149 | 3.0 | 6.0 | 0.00 | 0.00 | 0.00 | 46 | 1008.6 |
| 20260509204446 | 83 | 217 | 3.0 | 6.0 | 0.00 | 0.00 | 0.00 | 45 | 1009.5 |
| 20260509203936 | 83 | 79 | 1.0 | 2.0 | 0.00 | 0.00 | 0.00 | 51 | 1009.6 |
| 20260509203438 | 83 | 127 | 0.0 | 2.0 | 0.00 | 0.00 | 0.00 | 49 | 1009.6 |
| 20260509203024 | 82 | 170 | 0.0 | 4.0 | 0.00 | 0.00 | 0.00 | 49 | 1008.7 |
| 20260509202948 | 83 | 177 | 0.0 | 4.0 | 0.00 | 0.00 | 0.00 | 47 | 1009.6 |
| 20260509202438 | 82 | 200 | 2.0 | 4.0 | 0.00 | 0.00 | 0.00 | 46 | 1009.8 |
| 20260509201950 | 82 | 174 | 2.0 | 4.0 | 0.00 | 0.00 | 0.00 | 50 | 1009.9 |
| 20260509201505 | 81 | 34 | 1.0 | 3.0 | 0.00 | 0.00 | 0.00 | 49 | 1009.1 |
| 20260509201448 | 82 | 70 | 1.0 | 3.0 | 0.00 | 0.00 | 0.00 | 50 | 1010.0 |
| 20260509200938 | 81 | 27 | 1.0 | 3.0 | 0.00 | 0.00 | 0.00 | 48 | 1010.1 |
| 20260509200431 | 82 | 11 | 1.0 | 3.0 | 0.00 | 0.00 | 0.00 | 50 | 1010.1 |
| 20260509200103 | 80 | 291 | 0.0 | 3.0 | 0.00 | 0.00 | 0.00 | 53 | 1009.2 |
| 20260509195930 | 81 | 73 | 1.0 | 3.0 | 0.00 | 0.00 | 0.00 | 52 | 1010.1 |
| 20260509195422 | 81 | 41 | 0.0 | 4.0 | 0.00 | 0.00 | 0.00 | 53 | 1010.1 |
| 20260509194935 | 81 | 53 | 2.0 | 4.0 | 0.00 | 0.00 | 0.00 | 53 | 1010.2 |
| 20260509194601 | 80 | 53 | 2.0 | 4.0 | 0.00 | 0.00 | 0.00 | 52 | 1009.3 |
| 20260509194435 | 81 | 54 | 1.0 | 3.0 | 0.00 | 0.00 | 0.00 | 52 | 1010.2 |
| 20260509193926 | 81 | 49 | 0.0 | 4.0 | 0.00 | 0.00 | 0.00 | 53 | 1010.3 |
| 20260509193426 | 81 | 57 | 3.0 | 4.0 | 0.00 | 0.00 | 0.00 | 51 | 1010.3 |
| 20260509193137 | 81 | 65 | 0.0 | 3.0 | 0.00 | 0.00 | 0.00 | 53 | 1009.4 |
| 20260509193005 | 81 | 68 | 1.0 | 3.0 | 0.00 | 0.00 | 0.00 | 54 | 1010.3 |
| 20260509192427 | 81 | 223 | 1.0 | 3.0 | 0.00 | 0.00 | 0.00 | 51 | 1010.3 |
| 20260509191939 | 82 | 96 | 0.0 | 1.0 | 0.00 | 0.00 | 0.00 | 56 | 1010.3 |
| 20260509191614 | 81 | 140 | 0.0 | 1.0 | 0.00 | 0.00 | 0.00 | 55 | 1009.4 |
| 20260509191439 | 81 | 141 | 0.0 | 2.0 | 0.00 | 0.00 | 0.00 | 55 | 1010.3 |
| 20260509190931 | 81 | 143 | 0.0 | 2.0 | 0.00 | 0.00 | 0.00 | 56 | 1010.4 |
| 20260509190441 | 81 | 53 | 0.0 | 2.0 | 0.00 | 0.00 | 0.00 | 58 | 1010.4 |
| 20260509190041 | 80 | 52 | 0.0 | 2.0 | 0.00 | 0.00 | 0.00 | 57 | 1009.5 |
| 20260509185922 | 81 | 52 | 1.0 | 2.0 | 0.00 | 0.00 | 0.00 | 58 | 1010.4 |